TDRS 7

Last updated on Jan. 20, 2021, 6:22 a.m. UTC

1 23613U 95035B   21019.65034269 -.00000200  00000-0  00000-0 0  9998
2 23613  14.1457   2.6963 0027595  30.1461  45.3984  1.00270925 93458
UTC
Height (km)
Latitude
Longitude
Inclination
Orbital Period
UTC large
Height (km)
Speed (km/s)
/
Latitude / Longitude
Inclination (degrees)
Orbital Period (minutes)
Azimuth
Elevation
Range (km)
Doppler Factor
iOS Compass Heading
iOS Angle

Next 30 passes for location: Hong Kong

Rise time Rise Azimuth (degrees) Set time Set Azimuth (degrees) Duration Max altitude (degrees)

No matching passes for this satellites